Regional Weather Roundup
Issued by NWS

Home | Current Version | Previous Version | Graphics & Text | Print | Product List | Glossary On
Versions: 1 2 3 4 5 6 7 8 9 10 11 12 13 14 15 16 17 18 19 20 21 22 23 24 25 26 27 28 29 30 31 32 33 34 35 36 37 38 39 40 41 42 43 44 45 46 47 48 49 50
000
ASUS43 KFSD 270602
RWRSD

WEATHER ROUNDUP FOR SOUTH DAKOTA
NATIONAL WEATHER SERVICE SIOUX FALLS SD
100 AM CDT WED AUG 27 2014

NOTE: "FAIR" INDICATES FEW OR NO CLOUDS BELOW 12,000 FEET WITH NO
SIGNIFICANT WEATHER AND/OR OBSTRUCTIONS TO VISIBILITY.


SDZ001>005-009-010-012>017-270700-
NORTHWEST AND NORTH CENTRAL SOUTH DAKOTA

CITY           SKY/WX    TMP DP  RH WIND       PRES   REMARKS
BUFFALO          N/A     53  51  93 NE7       30.12S
FAITH            N/A     55  52  89 E7        30.16F
MOBRIDGE       CLOUDY    59  55  87 SE5       30.16R
$$

SDZ012>016-024>037-041>051-057-063-072>074-270700-
SOUTHWEST AND SOUTH CENTRAL SOUTH DAKOTA

CITY           SKY/WX    TMP DP  RH WIND       PRES   REMARKS
RAPID CTY ARPT MOCLDY    60  54  80 N3        30.17S
PIERRE         PTCLDY    57  54  89 NE10      30.13F
CUSTER         CLOUDY    59  54  83 N3        30.26S
ELLSWORTH AFB  MOCLDY    63  55  73 CALM      30.16F
PHILIP         MOCLDY    61  55  81 E10       30.11F
PINE RIDGE     FOG       55  55 100 MISG      30.14R VSB 1/2
WINNER         FAIR      64  60  87 E9        30.12F
$$

SDZ004>011-016>023-039-040-270700-
NORTHEAST SOUTH DAKOTA

CITY           SKY/WX    TMP DP  RH WIND       PRES   REMARKS
ABERDEEN       CLOUDY    57  56  96 NE3       30.19S
WATERTOWN      CLOUDY    59  54  83 SE6       30.19S
SISSETON         N/A     59  58  96 CALM      30.19R
$$

SDZ017-020-022-023-036>040-048>070-270700-
SOUTHEAST SOUTH DAKOTA

CITY           SKY/WX    TMP DP  RH WIND       PRES   REMARKS
SIOUX FALLS    MOCLDY    61  58  90 CALM      30.18S
HURON          MOCLDY    62  58  86 SE5       30.15F
CHAMBERLAIN    MOCLDY    62  57  85 SE8       30.14S
MITCHELL       MOCLDY    60  58  92 E3        30.16F
YANKTON        FAIR      61  57  88 E6        30.16S
$$

ABBREVIATIONS USED IN REMARKS
   TC - TEMPERATURE IN CELSIUS
  WCI - WIND CHILL INDEX
   HX - HEAT INDEX
  VSB - VISIBILITY



USA.gov is the U.S. government's official web portal to all federal, state and local government web resources and services.